Location: Danville Conservation Area
(38.8674°N, 91.5143°W)
Time: 01:35:49
(UTC-06:00)

Envisat - Pass Details

Date: 01 December 2021
Orbit: 764 x 766 km, 98.2° (Epoch: 23 January)

Event Time Altitude Azimuth Distance (km) Brightness Sun altitude
Rises 06:25:32 0° 355° (N) 3,240 6.0 -8.0°
Reaches altitude 10° 06:28:35 10° 336° (NNW) 2,309 5.1 -7.4°
Maximum altitude 06:31:47 17° 296° (WNW) 1,857 4.4 -6.8°
Drops below altitude 10° 06:34:59 10° 257° (WSW) 2,299 5.0 -6.3°
Sets 06:38:01 0° 238° (WSW) 3,220 5.9 -5.7°
